BREEZE-M R/B, 38746

Orbit data source: Space-Track

BREEZE-M R/B, 38746 is space debris in LEO originally from a launch on Mon, 06 Aug 2012 UTC launched from the Tyuratam Missile And Space Complex (TTMTR). Debris objects in space refer to the collection of defunct objects orbiting the Earth. Examples of debris include non-operational satellites, rocket bodies, and fragments generated from explosions, collisions, or faulty payload assembly.

Loading next visibility...
Identifier
38746, 2012-044C
Orbit
LEO
Country
Flag of CISCIS
Related business
Manufacturer
Khrunichev
Mission
Spacecraft
Bus & Motor
BRIZ, Unknown motor
Mass
~14,208 kg wet, 1,470 kg dry
Launch date (UTC)
2012-08-06 (14 years ago)
Launch vehicle
Unknown
Launch site
Tyuratam Missile And Space Complex (TTMTR)
Object type
Payload
Rocket body
Debris
Shape & HBR
Cyl, 2.0 m
Radar Cross Section
15.135 m², Large (>1 m²)

Expand to show TLE details & history
Last TLE update: 2 days ago

TLE from 2 days ago
0 BREEZE-M R/B
1 38746U 12044C   26171.20987323  .00017237  00000-0  85785-3 0  9996
2 38746  49.6529 169.2113 2090269  20.4994 346.8431 11.17686783523258
Epoch: 2026-06-20T05:02Z
TLE epoch observation values (Epoch: 2026-06-20T05:02:13.047Z)
Latitude
-0.00001°
Longitude
-174.77084°
Altitude
379.318 km
Speed
8.417 km/s
True Right ascension
11h 16m 50s
True Declination
0° 00' 00"
Sunlit
Object was in daylight at epoch
Visualization orbit readout
Latitude
Unknown
Longitude
Unknown
Altitude
Unknown
Speed
Unknown
Apparent Right ascension
Unknown
Apparent Declination
Unknown
Sunlit
N/A
Visualization observer readout
Local Sidereal Time
02:14:10
Azimuth
Unknown
Elevation
Unknown
Doppler factor
Unknown
Orbital elements
Apogee altitude
3,838.976 km
Perigee altitude
306.132 km
Semi-major axis
8,450.691 km
Eccentricity
0.20903
Inclination
49.6529°
RAAN
169.2113°
Arg. of periapsis
20.4994°
True anomaly
339.58488°
Mean anomaly
346.8431°
Eccentric anomaly
343.427°
Mean motion
2.79386 °/min
Orbital period
128.85 mins
BSTAR
0.00085785
Loading maneuver chart data...
Computing Atmospheric mass density...

Documentation

Showing up to 5 results
|